Home > Weather > Feldbach > Past weeks

Flag for Austria Weather for the Past 2 Weeks in Feldbach, Styria, Austria

Now
50 °F

Partly sunny.


Feels Like: 50 °F
Forecast: 33 / 49 °F
Wind: 1 mph from North

Location: Graz-Thalerhof-Flughafen

Current Time: Feb 9, 2016 at 1:00:02 PM

Latest Report: Feb 9, 2016 at 11:50 AM


Visibility: N/A

Pressure: 29.80 "Hg

Humidity: 62%

Dew point: 37 °F

Location of FeldbachLocation

Historic Weather in Feldbach — Graph

°F

Feldbach Temperature Yesterday

Maximum temperature yesterday: 54 °F (at 1:50 PM)
Minimum temperature yesterday: 37 °F (at 3:20 AM)
Average temperature yesterday: 45 °F

High & Low Weather Summary for the Past Weeks

 TemperatureHumidityPressure
High61 °F (Jan 28, 2:20 PM)100% (Jan 26, 7:50 AM)30.42 "Hg (Jan 26, 7:50 AM)
Low23 °F (Jan 27, 4:50 AM)31% (Feb 4, 1:20 PM)29.80 "Hg (Feb 8, 2:50 PM)
Average39 °F80%30.13 "Hg
* Reported Jan 25 10:20 AM — Feb 9 10:50 AM, Feldbach, Weather by CustomWeather, © 2016

Note: Actual official high and low records may vary slightly from our data, if they occured in-between our weather recording intervals... More about our weather records

Advertising

Feldbach Weather History for the Previous 24 Hours

 ConditionsComfort  
Time TempWeatherWind HumidityBarometerVisibility
10:50 AM
Tue, Feb 9
48 °FPartly sunny.1 mph66%29.83 "HgN/A
10:20 AM46 °FPartly sunny.2 mph71%29.86 "HgN/A
9:50 AM45 °FPartly sunny.2 mph71%29.86 "HgN/A
8:50 AM41 °FScattered clouds.5 mph81%29.89 "HgN/A
8:20 AM36 °FScattered clouds.8 mph87%29.89 "HgN/A
7:50 AM34 °FScattered clouds.7 mph93%29.89 "HgN/A
6:50 AM34 °FClear.6 mph93%29.86 "Hg10 mi
6:20 AM34 °FClear.6 mph87%29.86 "Hg10 mi
5:50 AM32 °FClear.2 mph87%29.86 "Hg10 mi
5:20 AM36 °FChilly.5 mph87%29.86 "HgN/A
4:50 AM34 °FChilly.2 mph93%29.86 "HgN/A
4:20 AM34 °FPassing clouds.8 mph93%29.83 "HgN/A
3:50 AM36 °FChilly.6 mph87%29.83 "HgN/A
3:20 AM37 °FChilly.3 mph87%29.80 "HgN/A
2:50 AM37 °FChilly.5 mph87%29.80 "HgN/A
2:20 AM36 °FChilly.5 mph87%29.80 "HgN/A
1:50 AM41 °FQuite cool.3 mph76%29.83 "HgN/A
1:20 AM43 °FQuite cool.2 mph71%29.83 "HgN/A
12:50 AM43 °FQuite cool.3 mph71%29.83 "HgN/A
12:20 AM46 °FCool.3 mph62%29.80 "HgN/A
11:50 PM
Mon, Feb 8
50 °FPassing clouds.5 mph54%29.80 "HgN/A
11:20 PM46 °FPassing clouds.3 mph66%29.80 "HgN/A
10:50 PM52 °FPassing clouds.8 mph54%29.80 "HgN/A
10:20 PM48 °FPassing clouds.7 mph71%29.80 "HgN/A
9:50 PM48 °FPassing clouds.8 mph71%29.80 "HgN/A
9:20 PM46 °FPassing clouds.5 mph76%29.80 "HgN/A
8:50 PM45 °FPassing clouds.3 mph81%29.80 "HgN/A
8:20 PM50 °FPassing clouds.7 mph71%29.80 "HgN/A
7:50 PM50 °FPassing clouds.3 mph71%29.80 "HgN/A
7:20 PM50 °FPassing clouds.2 mph71%29.80 "HgN/A
6:50 PM50 °FPassing clouds.12 mph71%29.80 "HgN/A
6:20 PM52 °FPartly cloudy.9 mph67%29.80 "HgN/A
5:50 PM52 °FPartly cloudy.10 mph67%29.80 "HgN/A
5:20 PM52 °FPassing clouds.6 mph72%29.80 "HgN/A
4:50 PM52 °FPartly sunny.6 mph72%29.80 "HgN/A
4:20 PM54 °FPartly sunny.8 mph67%29.80 "HgN/A
3:50 PM54 °FPartly sunny.9 mph67%29.80 "HgN/A
3:20 PM52 °FPartly sunny.13 mph72%29.80 "HgN/A
2:50 PM52 °FPartly sunny.13 mph72%29.80 "HgN/A
2:20 PM52 °FPartly sunny.10 mph72%29.83 "HgN/A
1:50 PM54 °FBroken clouds.8 mph67%29.83 "HgN/A
1:20 PM52 °FScattered clouds.5 mph72%29.86 "HgN/A
Weather by CustomWeather, © 2016

See weather overviewHow to use our weather pages